Location: Krakow
(50.0830°N, 19.9170°E)
Time: 12:55:42
(UTC+02:00)

Tiros 1 - Pass Details

Date: 14 February 2023
Orbit: 627 x 662 km, 48.4° (Epoch: 26 March)

Event Time Altitude Azimuth Distance (km) Brightness Sun altitude
Rises 01:08:48 0° 281° (W) 2,914 - -50.1°
Reaches altitude 10° 01:11:15 10° 273° (W) 2,007 - -49.9°
Maximum altitude 01:15:28 36° 207° (SSW) 999 - -49.6°
Drops below altitude 10° 01:19:42 10° 141° (SE) 2,013 - -49.2°
Sets 01:22:09 0° 133° (SE) 2,925 - -49.0°
